Theta_e
311 316 317 316 319 320 318 318 315 314 315 308 309 311 311 315 316 317 317 318 318 319 318 318 324 326 328 328 330 335 339 343 345 339 337 348 352 351 354 354 353 352 351 350 349 344 344 343 341 345 345 346 346 344 344 344 343 343 343 343 344 344 345 344 345 345 345 345 345 345 344 343 338 335 335 334 334 335 337 338 340 342 343 343 342 342 342 342 342 341 340 340 339 339 338 338 338
317 317 317 318 319 319 318 318 314 311 310 306 309 311 312 316 316 317 318 318 318 318 318 323 330 331 332 334 335 336 342 346 349 349 347 347 349 353 352 352 352 350 350 349 349 346 348 347 343 347 348 348 348 347 346 345 344 345 345 345 345 346 346 345 345 345 345 345 345 345 344 343 338 336 335 334 334 336 338 339 340 343 343 342 342 342 341 339 338 337 336 338 338 338 338 338 337
317 318 318 318 319 319 319 316 312 309 307 306 309 314 316 316 316 317 318 318 319 320 324 329 333 335 335 337 337 338 344 346 347 349 349 349 351 353 352 352 351 350 350 349 349 347 349 347 344 346 348 349 349 348 348 347 347 346 346 346 346 346 346 345 345 345 346 345 345 344 344 344 341 339 336 332 332 335 337 339 342 342 342 342 341 339 335 332 331 332 333 336 336 336 336 335 333
316 318 319 318 318 318 317 314 313 310 307 307 308 315 317 317 317 317 318 320 321 324 330 333 336 338 337 339 338 340 345 345 347 348 350 351 352 353 352 352 350 349 349 348 349 347 348 346 345 345 347 348 348 348 348 348 348 347 347 348 347 346 345 345 344 344 345 345 344 343 342 342 342 338 333 330 331 335 338 340 342 341 342 341 337 333 331 331 332 333 335 337 336 333 333 333 332
317 318 318 319 318 317 317 315 315 311 308 310 310 315 317 317 317 317 319 323 325 328 332 335 337 340 339 341 341 343 346 344 347 349 348 347 350 354 353 353 351 349 349 349 347 347 348 345 345 347 347 346 346 347 347 347 347 347 348 347 347 346 346 346 345 344 344 344 343 342 341 340 336 332 331 333 335 338 339 341 341 341 340 337 334 335 338 339 339 339 340 340 337 335 336 336 336
317 318 317 318 318 317 316 313 311 311 312 315 314 315 316 317 317 317 323 328 330 331 333 335 336 340 341 343 344 345 346 346 347 348 347 343 346 352 350 351 351 346 344 344 343 343 346 345 346 346 346 345 345 345 346 346 346 346 347 346 346 346 346 345 345 344 344 343 342 341 338 332 328 330 337 340 341 340 339 340 340 339 338 337 339 342 344 343 342 342 341 340 338 337 338 339 339
318 317 317 316 317 316 315 311 310 312 314 317 315 316 316 317 317 319 327 331 333 333 334 335 333 338 341 341 345 346 346 347 348 347 347 344 343 345 341 341 344 341 338 340 342 343 343 342 343 343 343 343 343 344 343 344 345 345 345 345 345 345 344 344 343 343 343 342 341 336 329 325 329 337 341 342 342 339 338 340 338 339 340 341 343 344 344 343 343 342 341 339 338 338 339 339 340
317 317 317 316 316 316 315 312 312 314 314 315 315 316 316 316 317 321 328 331 333 333 333 334 330 336 341 340 344 346 346 346 348 346 347 344 343 344 342 341 341 342 342 342 342 343 342 340 341 339 338 338 339 340 339 340 341 342 343 343 344 344 343 343 343 342 341 339 334 327 326 331 338 342 341 341 341 337 338 340 339 340 342 342 343 343 344 344 343 342 340 339 338 339 339 339 340
317 317 316 316 316 315 313 312 313 315 315 315 315 317 317 317 319 324 330 332 334 333 334 333 330 337 341 342 343 344 345 346 348 347 346 346 346 347 347 345 344 345 344 342 340 342 343 341 341 340 337 336 336 335 334 335 336 337 339 340 341 342 342 342 340 338 336 331 325 326 334 340 342 343 341 340 339 336 339 340 339 340 341 342 343 344 344 343 343 341 339 339 340 340 340 340 340
316 316 316 317 315 312 310 311 312 314 315 315 317 318 319 320 323 327 331 333 333 333 335 333 330 336 339 340 341 342 344 346 347 347 347 347 347 346 347 346 345 344 343 343 343 343 343 341 341 340 339 337 337 335 334 333 333 333 333 333 336 337 339 338 335 331 327 324 326 335 341 342 342 342 341 340 338 337 339 338 338 340 342 342 342 343 343 341 340 340 340 341 341 340 340 340 340
316 315 316 315 312 309 308 310 312 314 316 316 320 321 323 327 328 329 330 332 332 332 335 333 332 335 337 339 341 343 345 345 345 346 347 346 345 346 345 343 343 344 343 344 344 343 342 342 341 340 339 338 336 335 333 332 332 332 331 329 329 330 333 335 333 325 323 329 337 341 342 342 341 340 340 340 338 337 337 337 338 340 342 342 342 341 340 338 339 340 341 341 339 338 339 340 339
316 315 316 314 311 311 310 311 312 315 317 318 323 322 324 329 329 329 328 330 330 333 336 336 335 334 337 339 341 344 345 344 344 345 347 345 345 347 344 341 342 343 343 343 343 343 342 341 342 341 340 337 336 334 332 331 332 332 332 329 325 326 328 335 337 330 328 336 340 341 341 341 339 339 339 340 339 338 337 337 339 341 341 342 341 339 338 339 340 341 340 338 337 336 338 338 338
316 315 316 314 313 314 312 312 313 316 317 320 323 324 325 327 329 328 327 330 330 333 336 337 335 333 337 340 342 343 342 342 344 345 346 344 344 345 344 342 342 342 342 342 342 341 341 341 341 342 341 338 335 333 332 331 330 331 332 329 325 326 327 334 340 338 336 338 340 341 340 339 338 339 339 339 339 339 338 338 339 341 341 341 339 338 338 339 341 340 338 336 335 336 336 336 336
316 316 316 314 314 315 313 312 313 314 314 320 325 326 327 327 330 329 329 332 335 335 335 336 334 332 334 337 340 339 339 341 342 344 345 344 344 345 344 344 342 342 341 341 341 340 340 340 340 341 341 340 336 333 334 332 328 329 331 330 326 325 326 332 338 340 339 338 340 341 338 338 338 340 340 339 338 337 337 338 340 340 341 340 338 337 338 339 340 340 337 335 336 335 335 335 335
316 316 316 314 313 313 313 313 313 312 313 320 326 327 328 329 331 332 333 333 336 336 334 337 336 334 334 336 339 338 338 340 340 343 344 343 343 343 344 344 343 342 340 340 340 340 339 339 339 339 339 339 337 336 335 331 329 328 327 327 329 325 322 329 337 339 339 338 339 340 338 338 340 341 339 338 338 336 336 338 340 340 340 340 337 337 338 338 339 339 336 335 336 335 335 335 335
315 316 316 314 311 311 313 314 314 313 314 318 322 324 326 330 332 333 335 333 334 335 335 337 338 338 337 337 338 337 338 339 340 341 341 341 341 341 342 343 342 341 340 339 339 339 339 339 339 338 338 337 337 336 334 333 333 331 326 322 326 328 323 325 335 339 339 338 337 338 337 338 339 339 338 337 338 337 337 340 340 340 340 338 336 336 337 336 337 337 336 336 336 336 336 335 336
315 316 316 313 311 311 313 315 314 313 315 316 319 320 323 328 331 333 334 332 333 334 335 336 336 337 336 336 337 338 339 339 340 340 340 340 339 339 339 340 341 341 340 339 338 337 337 337 338 339 339 339 339 336 334 334 334 332 332 330 326 328 327 322 330 338 340 338 336 336 336 339 340 338 338 338 338 337 338 340 339 340 339 337 336 336 336 335 335 335 335 336 336 336 336 336 336
315 317 315 312 312 313 314 315 315 314 316 317 320 321 322 326 328 330 330 330 331 332 334 335 334 335 335 336 337 337 339 339 339 339 339 338 337 337 337 337 338 338 339 339 338 336 336 336 336 337 338 340 340 339 337 334 333 334 335 336 333 330 327 322 327 335 339 339 338 337 337 340 341 339 340 340 339 337 337 338 339 339 338 336 335 335 335 334 334 334 334 335 335 336 338 339 338
315 317 315 313 315 315 315 316 315 315 316 317 319 321 322 323 325 327 327 326 326 329 332 332 331 332 332 334 336 336 337 338 338 338 338 337 336 336 336 335 335 336 337 338 337 336 335 335 335 335 336 338 339 339 339 338 336 336 337 336 336 334 326 320 327 336 338 340 342 340 339 341 340 339 341 342 340 337 335 337 338 337 337 335 334 334 334 334 333 333 334 333 334 337 341 343 342
315 316 315 315 316 315 315 315 315 315 315 315 317 318 319 321 324 327 326 325 325 327 329 329 329 329 328 330 334 335 336 336 336 336 336 336 335 335 335 334 334 334 335 336 336 335 334 334 334 334 335 336 337 337 338 339 338 337 337 336 336 335 326 319 326 336 339 341 342 342 341 340 339 340 342 341 340 338 333 334 336 336 335 334 333 334 333 333 333 332 331 331 335 340 343 343 342
315 316 315 315 316 315 315 315 315 315 315 315 315 317 320 323 326 326 324 324 325 329 330 330 329 329 327 328 331 333 334 335 334 335 334 334 334 333 333 333 333 333 334 334 334 334 334 334 333 334 335 335 335 336 336 338 338 336 336 336 335 334 330 326 329 333 338 341 339 341 342 340 339 340 342 341 341 340 335 334 337 336 336 335 333 336 336 334 333 333 329 331 337 341 342 342 342
314 315 316 315 316 315 315 315 315 314 315 315 315 318 322 325 327 326 324 325 328 331 331 329 328 328 329 328 329 332 333 334 333 333 333 333 333 332 332 332 332 332 333 333 333 333 333 334 334 333 334 334 335 334 335 335 337 337 337 338 337 337 335 332 334 334 336 341 338 339 342 341 339 339 342 342 341 341 338 337 338 338 338 336 335 337 337 334 334 334 332 333 336 337 340 342 342
314 315 315 315 316 315 315 315 314 315 315 315 317 320 322 323 327 330 330 331 332 330 328 326 326 327 329 330 331 332 332 333 333 332 332 332 332 332 331 331 331 331 332 332 332 332 332 334 334 334 333 334 335 334 334 334 336 337 337 338 338 339 337 333 336 337 336 339 339 338 341 341 339 339 341 341 341 340 339 338 338 339 338 335 335 336 335 334 333 332 332 333 334 334 338 339 340
315 315 315 315 315 316 315 314 315 315 315 316 318 321 320 322 326 331 332 332 330 328 327 326 326 326 327 329 330 332 332 333 333 332 332 332 332 331 330 330 329 330 330 331 332 332 332 333 334 334 334 334 335 335 334 333 335 335 335 337 338 339 338 335 337 338 336 338 338 337 338 340 340 339 339 340 342 341 339 340 339 339 336 333 334 333 332 332 331 332 333 335 336 335 335 338 339
316 315 316 316 316 316 315 315 315 315 315 317 320 321 322 324 328 331 331 330 327 325 326 325 325 325 324 324 325 328 331 332 332 332 331 331 331 330 330 329 329 329 329 330 331 331 331 332 333 333 333 334 334 334 334 334 334 335 335 335 337 338 337 337 337 339 338 338 339 339 337 338 340 340 338 339 342 341 340 342 340 337 334 333 333 332 331 331 332 335 337 338 338 337 335 337 338
317 317 317 317 317 316 315 316 316 317 317 318 321 324 326 327 328 330 330 328 325 324 324 324 323 323 322 322 323 325 329 331 331 331 331 330 329 329 329 328 328 328 329 329 329 330 330 330 332 332 333 333 333 334 334 335 334 334 335 335 336 337 337 337 337 336 336 338 338 339 339 338 338 341 340 340 341 341 342 342 339 336 333 332 332 331 331 332 334 337 339 338 338 338 337 336 337
317 318 317 318 318 317 316 317 317 319 320 320 322 325 327 326 326 329 329 326 323 323 323 323 322 322 322 322 323 325 327 328 329 329 329 328 327 327 327 327 328 328 328 329 328 329 329 329 331 331 332 332 332 334 334 335 334 333 334 335 335 335 335 337 338 337 336 337 334 333 338 337 336 341 342 340 340 341 342 341 339 336 334 332 331 331 332 334 336 338 339 337 336 338 338 337 337
318 318 318 318 318 318 317 316 318 319 320 321 322 324 324 322 325 328 328 325 322 323 323 322 322 322 322 321 321 323 325 326 326 327 328 327 327 326 326 327 327 327 327 328 327 328 328 328 329 330 330 331 331 333 333 334 334 334 334 334 334 334 333 334 337 338 338 337 329 323 333 337 337 342 344 342 340 340 340 338 337 335 333 332 332 331 333 335 337 338 339 338 338 338 338 338 337
318 318 318 318 318 319 318 317 317 317 319 321 321 320 320 323 328 328 326 323 322 322 322 322 322 321 321 321 321 323 324 325 324 325 326 326 325 324 324 325 325 323 323 324 325 325 326 327 328 328 329 330 331 332 332 333 334 334 334 334 334 334 333 332 334 337 338 337 328 317 327 337 339 343 346 344 341 340 338 337 337 335 332 332 333 333 335 337 337 338 338 338 339 340 339 339 339
318 317 317 318 317 319 320 318 317 317 319 320 319 317 320 328 329 327 324 322 322 321 321 321 322 321 321 321 320 322 323 324 323 324 324 324 323 322 322 322 322 321 320 321 322 323 323 324 326 327 327 328 329 330 331 332 333 335 335 333 333 333 333 333 333 334 335 336 330 322 326 333 338 342 344 345 344 340 337 337 337 334 333 333 334 335 336 337 337 337 337 337 338 339 339 339 340
318 317 317 317 314 316 321 319 318 318 318 319 318 316 321 330 327 325 323 322 321 321 321 321 321 321 321 321 320 320 322 322 322 322 322 322 322 321 320 320 320 320 319 319 320 321 320 321 322 323 324 327 328 329 330 331 332 334 335 334 333 333 333 333 333 332 333 335 332 327 329 332 336 341 342 344 345 340 338 339 337 334 333 333 334 335 337 337 337 336 336 336 337 338 339 340 341
318 315 314 316 313 316 321 319 319 319 317 317 317 315 322 328 326 324 323 321 322 321 322 322 321 322 321 321 320 319 320 321 321 321 321 321 321 321 320 319 319 318 318 318 318 319 319 320 320 320 321 323 326 328 329 330 331 333 334 333 333 333 333 333 332 332 332 334 333 328 331 334 335 339 341 342 344 341 339 339 336 334 333 333 334 336 337 337 337 337 336 337 337 337 338 340 341
318 315 313 315 314 315 319 319 319 319 318 317 318 318 323 327 326 324 322 321 322 322 322 322 321 321 321 320 319 319 320 320 320 321 322 321 321 320 319 318 317 317 318 318 318 318 318 319 319 319 319 320 323 326 328 329 330 331 332 332 333 332 332 333 332 332 331 334 335 330 332 336 334 337 339 341 343 343 340 337 336 335 333 333 335 336 337 337 337 338 338 338 337 337 337 340 342
315 315 313 314 315 314 316 318 319 319 318 318 318 318 322 327 326 324 322 322 322 322 322 322 321 322 321 320 319 319 319 320 320 321 321 320 320 319 318 317 317 317 317 317 317 317 317 318 318 318 318 319 321 324 326 328 330 331 331 331 332 332 333 333 332 332 332 334 336 333 332 333 335 337 339 340 342 343 339 334 335 336 334 335 336 335 337 338 338 338 339 340 338 336 337 339 342
313 314 313 314 315 314 315 318 319 318 318 318 318 318 321 326 326 323 322 322 322 322 322 322 322 322 322 320 319 319 319 319 320 321 320 319 319 318 317 317 317 316 317 316 316 316 316 316 317 318 318 318 319 321 324 326 328 329 330 331 332 333 333 334 332 331 332 334 336 334 328 327 334 337 337 339 342 342 340 336 336 336 335 336 336 335 336 338 338 338 340 341 340 339 338 339 342
315 315 314 313 313 315 316 318 319 319 317 318 318 317 320 326 326 324 322 322 323 323 322 322 322 322 321 321 320 320 319 319 320 320 320 319 318 317 316 316 316 316 316 316 315 315 315 315 316 317 317 317 317 319 321 323 326 328 330 331 331 332 333 333 332 331 332 334 335 332 325 325 335 337 336 338 339 342 341 340 340 337 336 338 336 335 336 337 339 339 339 341 342 342 340 341 342
317 316 315 314 313 314 317 319 318 319 317 317 319 317 320 325 326 324 322 322 324 323 323 321 321 321 321 321 320 320 320 319 320 320 319 318 317 317 317 315 315 316 316 315 315 315 315 314 315 316 317 317 317 318 319 321 325 328 330 330 331 332 332 332 331 330 331 334 335 331 325 328 335 336 337 338 338 341 340 340 341 337 336 339 337 337 335 336 339 339 339 341 342 340 341 342 342
316 315 314 314 314 315 317 319 319 319 317 317 319 318 320 325 326 325 323 323 324 323 322 322 321 321 320 321 320 320 319 319 320 320 319 318 317 316 316 315 315 316 315 315 315 314 315 314 314 315 316 316 317 317 318 319 322 326 329 330 330 331 332 332 331 330 330 333 335 332 329 331 332 332 335 337 338 340 339 340 341 338 337 337 337 339 337 338 340 340 340 341 340 340 342 344 343
316 315 314 313 314 316 317 319 319 319 318 318 319 318 320 325 325 325 324 323 324 323 322 322 321 321 321 321 321 320 319 319 320 320 319 318 317 316 315 315 316 316 315 314 315 315 315 314 314 315 316 316 316 316 317 318 320 323 327 329 329 330 331 331 331 331 331 332 334 334 332 330 327 327 329 331 334 338 339 341 341 340 339 337 337 340 339 339 341 340 340 339 339 342 344 345 343
316 315 314 313 315 315 314 317 320 319 318 318 318 318 321 324 325 325 324 323 324 324 323 322 321 321 320 320 320 319 319 320 320 319 319 318 316 316 315 315 315 315 314 314 315 315 314 314 314 314 315 315 315 316 317 318 319 322 325 328 328 329 330 330 330 331 330 332 334 334 332 329 326 328 328 325 329 334 338 340 341 341 340 338 340 340 338 336 338 340 338 337 339 341 344 345 344
315 315 314 313 315 315 314 317 319 318 318 319 318 319 321 322 323 324 324 323 325 324 323 323 321 320 320 320 320 319 319 320 320 319 318 318 316 316 315 314 314 314 314 315 315 314 314 314 314 314 315 315 315 316 316 317 318 320 323 326 327 328 330 330 329 329 329 331 334 334 333 331 330 332 331 329 330 333 337 339 339 340 340 339 340 339 338 334 336 338 336 337 339 339 343 344 344
314 315 315 314 315 315 315 317 317 316 317 318 319 318 319 320 321 323 324 324 325 324 323 323 323 321 320 320 320 319 319 320 320 319 318 318 316 315 315 314 314 313 314 315 315 314 314 314 314 314 314 314 315 316 316 316 317 318 321 324 326 327 329 330 329 327 327 329 332 333 333 332 333 335 333 333 335 335 339 341 339 338 339 341 340 338 338 336 335 336 335 337 338 337 341 344 344
313 314 315 315 315 315 315 316 316 315 316 319 319 317 316 318 320 321 323 324 324 324 323 322 323 322 320 320 319 318 319 320 319 318 319 318 316 315 315 314 313 313 313 314 314 315 314 314 314 314 314 313 314 315 316 316 316 317 319 322 324 325 326 328 328 326 325 327 329 331 333 333 333 334 334 335 336 334 336 339 340 339 339 340 341 340 339 337 337 336 335 337 337 337 340 341 343
313 314 315 315 315 315 315 315 315 315 316 319 318 317 317 317 318 321 323 324 323 324 322 321 321 322 321 321 319 318 319 319 318 317 318 317 316 315 314 313 313 313 313 313 314 314 314 314 313 313 313 313 314 315 315 316 317 317 318 320 321 323 324 326 328 327 325 326 327 328 330 332 332 332 333 334 334 333 334 336 338 338 338 339 340 340 341 340 337 336 337 338 337 337 339 339 340
314 315 315 315 315 315 315 314 314 314 317 316 315 318 318 316 319 322 321 322 323 323 322 320 320 321 322 321 319 318 318 318 317 317 318 317 316 315 314 314 314 314 314 314 313 313 314 314 313 313 312 312 313 314 315 315 316 317 317 318 320 321 323 324 326 328 326 324 326 328 329 330 330 328 330 332 332 332 333 334 334 334 336 337 336 338 342 341 339 339 339 340 339 338 338 338 337
315 315 316 316 316 315 315 314 313 315 317 315 315 319 318 315 318 322 321 320 321 322 321 320 319 320 321 321 319 318 318 317 317 317 317 316 315 314 314 314 313 313 313 313 313 312 313 313 312 312 312 312 312 313 314 315 315 316 317 318 319 320 321 322 324 327 327 324 323 325 328 330 329 328 328 330 330 331 331 331 330 331 333 334 335 339 343 343 342 342 342 341 341 340 338 337 336
315 316 316 316 316 316 316 315 315 315 316 316 318 320 319 316 318 321 322 322 321 322 321 320 320 320 321 321 319 318 316 315 316 317 316 315 315 314 314 314 312 312 312 312 312 312 312 312 312 312 311 312 312 312 313 313 314 315 316 317 318 319 320 321 323 324 326 326 323 323 327 329 330 328 328 329 330 331 331 330 330 330 331 334 337 340 341 341 342 343 343 342 342 341 339 339 338
316 316 315 315 315 316 315 316 317 316 316 318 320 320 320 318 319 321 322 322 321 321 321 320 320 321 321 320 318 317 315 315 315 315 315 315 315 314 314 313 312 311 312 312 313 313 312 312 312 311 311 311 312 312 312 313 313 314 315 316 317 318 319 320 321 322 323 325 325 326 328 329 330 329 327 326 328 330 331 332 332 332 332 333 337 340 340 339 341 342 342 341 342 342 341 340 339
316 314 314 314 313 314 314 315 316 315 317 320 320 320 320 318 320 321 321 320 319 320 320 319 320 321 321 319 317 316 314 314 314 314 314 315 315 314 313 312 311 311 312 312 313 312 312 311 311 311 311 311 312 312 312 312 313 313 314 315 316 317 318 318 320 320 321 322 324 326 327 328 329 330 328 327 328 331 331 332 333 333 333 333 335 339 341 340 341 341 341 341 341 342 342 342 340
314 313 313 314 313 313 314 313 314 314 317 319 320 320 319 318 320 321 319 319 319 319 319 318 319 320 319 317 316 315 314 314 313 313 313 315 315 314 313 312 311 311 312 312 312 312 311 310 310 310 311 311 312 312 312 312 312 313 314 314 315 316 317 318 318 319 319 320 321 323 325 326 326 328 328 328 329 331 331 331 333 333 333 334 334 337 340 340 340 340 341 342 342 342 343 343 342
314 314 313 313 314 314 314 314 314 315 315 318 320 319 318 319 320 319 318 318 318 317 317 317 318 318 316 315 313 313 313 313 312 312 314 315 314 313 312 312 311 311 312 312 312 311 310 309 310 310 310 311 311 311 312 312 312 313 313 313 314 315 316 317 317 318 318 319 320 321 323 324 325 325 327 328 327 329 329 329 331 333 334 334 333 334 337 338 338 340 340 342 342 342 343 343 343
314 313 313 314 314 314 315 316 318 317 314 315 318 318 317 318 319 318 317 317 315 315 316 316 317 316 314 313 312 312 312 312 312 312 314 315 314 312 312 311 311 311 311 312 311 310 309 309 310 310 310 311 311 311 311 312 312 312 312 313 314 314 315 316 316 317 317 318 319 319 320 321 322 323 324 325 325 326 328 329 330 331 333 334 333 333 335 336 337 338 339 340 342 341 341 342 342
315 312 312 313 314 314 315 318 319 318 316 316 317 315 315 317 318 318 318 317 315 314 315 315 315 314 314 314 313 312 311 312 312 312 313 314 313 312 311 311 311 311 311 311 311 309 308 309 310 310 310 311 311 311 311 311 311 312 312 312 313 313 314 315 315 316 316 316 317 318 318 318 320 321 321 321 322 323 324 327 329 330 331 332 333 333 335 335 335 336 338 339 341 341 341 341 341
314 312 312 313 314 314 315 315 315 315 315 316 316 315 314 315 317 318 319 318 317 315 314 315 314 314 314 314 313 311 311 312 312 313 313 313 312 311 311 310 310 310 311 311 310 309 308 309 310 310 310 310 310 310 310 311 311 311 312 312 312 313 313 314 314 315 315 316 316 317 317 316 316 318 319 318 319 320 321 323 325 327 329 330 331 333 335 336 335 335 336 337 338 340 341 341 341
313 312 311 312 313 313 313 312 312 313 314 315 316 316 314 315 317 319 319 319 319 317 315 315 314 314 313 313 312 311 311 312 313 312 313 313 312 311 311 310 310 310 310 310 309 308 308 309 310 310 310 310 310 310 310 311 311 311 311 312 312 312 313 313 313 314 314 315 315 315 317 317 315 316 318 318 317 318 319 320 322 322 324 326 329 332 334 336 336 335 335 335 337 338 339 340 341
314 313 311 311 311 311 311 312 312 313 313 313 314 314 314 314 316 318 319 319 319 318 316 315 314 313 312 312 312 312 312 313 313 312 312 312 312 311 311 310 310 310 309 309 309 308 308 309 309 309 309 309 309 310 310 311 311 311 311 311 312 312 312 312 313 313 314 314 315 314 315 316 316 316 317 318 318 318 317 318 320 320 321 324 327 330 332 334 335 335 335 335 336 336 336 338 339
315 315 314 313 312 311 312 313 312 312 313 312 313 312 313 315 316 316 318 318 317 317 316 315 314 313 313 313 313 313 313 313 313 312 312 312 312 311 310 310 309 309 309 309 308 308 308 309 309 309 309 309 310 310 310 310 310 311 311 311 312 312 312 312 312 313 313 314 314 314 315 315 316 316 317 317 318 319 318 317 317 318 320 323 325 327 329 331 333 334 335 336 336 336 335 336 337
316 315 315 314 313 312 313 314 313 312 313 313 313 313 313 315 316 316 317 317 316 316 316 315 314 313 313 313 313 313 313 313 313 313 312 312 311 311 310 310 309 309 309 308 308 307 308 309 309 309 309 309 310 310 310 310 310 310 310 311 311 312 312 312 313 313 314 314 314 315 315 315 315 316 317 317 317 318 318 317 317 317 318 320 322 324 326 328 330 331 333 335 335 335 335 335 336
Wind_Speed
1 2 4 4 4 6 7 6 5 4 5 6 4 2 5 3 3 2 3 2 2 2 3 4 3 2 4 2 4 7 11 9 6 2 1 4 3 7 9 11 14 14 14 14 16 19 18 20 22 22 23 23 23 24 24 24 24 24 24 23 24 24 24 25 25 25 25 24 23 22 20 19 21 23 23 24 24 23 22 20 19 19 19 17 16 16 16 16 17 17 16 16 15 14 14 13 14
1 3 4 4 6 7 4 4 5 5 6 6 4 2 5 5 3 3 1 2 4 5 3 1 3 3 1 2 4 6 11 11 8 5 5 3 2 6 9 11 11 12 12 12 14 16 15 17 21 21 20 20 21 23 24 23 23 22 22 22 22 21 22 23 24 23 23 22 20 20 19 18 19 21 21 22 22 22 21 20 20 18 18 17 16 16 17 18 18 18 17 16 15 14 14 13 13
1 3 5 6 7 6 2 4 6 4 6 5 4 4 3 4 3 1 3 5 6 2 2 4 5 2 3 4 4 5 8 8 8 6 5 4 3 5 9 10 10 11 11 11 13 14 14 15 18 19 18 18 19 20 21 20 21 22 21 20 20 20 21 21 20 20 20 19 19 18 18 17 16 17 18 20 21 21 21 20 20 18 18 17 16 18 19 20 20 19 18 16 15 14 13 13 12
3 3 6 8 6 4 4 5 5 4 5 3 4 5 3 2 1 2 4 5 2 4 5 6 5 3 2 7 6 7 6 5 10 8 3 1 1 5 8 9 10 11 11 11 11 11 13 16 16 16 17 17 17 16 16 17 18 19 18 17 18 19 19 18 17 18 18 17 17 17 17 16 15 15 16 17 19 20 20 21 20 19 18 18 19 21 22 20 19 18 17 15 14 14 13 13 12
3 4 5 7 4 3 4 3 3 4 2 1 3 6 3 1 2 2 4 3 4 6 5 6 6 4 7 8 4 4 4 2 9 12 6 5 5 3 6 8 9 9 9 9 9 8 13 16 14 14 14 13 12 11 12 12 13 15 15 16 16 17 16 14 15 16 15 16 16 16 17 16 15 16 16 17 19 20 21 21 20 20 20 21 22 20 19 18 17 16 15 14 14 14 13 12 12
5 6 6 6 2 0 4 3 4 4 3 3 2 6 3 1 2 2 4 6 6 5 5 6 8 8 9 9 7 7 6 3 5 11 8 6 7 5 5 5 5 7 9 12 14 16 17 16 14 14 13 11 9 8 7 7 8 9 11 13 14 14 14 13 13 14 14 15 15 15 16 16 16 17 17 18 19 20 21 21 20 21 22 22 19 17 16 16 16 15 14 14 13 12 11 10 10
6 7 6 5 2 2 5 3 3 2 5 3 4 4 2 2 2 3 8 9 8 6 5 7 9 8 6 6 8 10 11 9 6 10 11 8 9 11 10 8 13 16 17 21 21 19 19 15 13 14 14 12 11 10 9 7 5 4 6 9 11 13 13 13 14 14 13 13 14 14 16 17 18 17 17 18 19 19 20 20 21 22 21 19 17 16 15 15 15 14 13 13 12 10 9 10 10
6 4 3 4 4 4 5 2 1 2 5 2 3 3 3 3 2 6 9 8 8 7 7 8 9 7 5 5 6 9 14 14 10 14 17 13 12 12 13 12 17 19 15 18 18 17 17 13 11 12 11 9 8 8 9 12 11 9 6 3 5 9 11 13 14 14 13 13 14 15 16 17 17 17 18 18 18 19 19 20 22 21 19 18 16 15 14 14 13 13 12 11 10 9 9 9 9
6 4 3 4 4 4 3 3 3 3 4 3 3 3 3 1 5 7 9 8 8 7 7 6 8 8 7 9 8 7 12 15 13 17 18 17 16 14 16 14 15 16 14 15 17 17 17 14 12 13 12 9 8 8 7 7 9 10 9 7 3 3 7 12 14 15 15 15 15 16 16 16 15 16 18 17 17 19 19 19 21 20 18 17 16 15 14 14 13 11 10 9 9 9 9 9 9
5 3 3 3 4 5 4 3 4 4 5 4 5 5 3 4 6 8 10 10 8 8 7 5 9 10 7 9 7 5 10 14 15 17 18 19 19 17 17 17 16 16 16 16 17 17 15 13 12 12 12 10 9 10 8 6 4 4 2 2 1 1 5 10 14 16 16 16 17 17 15 14 14 16 17 16 17 19 18 19 20 19 17 17 16 15 14 14 12 10 9 8 9 9 9 10 9
4 3 3 4 5 5 4 5 5 6 6 6 7 6 4 5 7 9 10 9 8 8 7 5 10 11 8 8 6 6 12 15 16 16 17 19 21 22 20 19 18 18 18 18 17 17 15 12 11 11 11 9 8 9 8 7 5 2 3 5 3 2 5 9 12 15 16 17 17 16 15 14 14 16 17 16 17 18 18 19 19 18 17 17 16 15 14 13 11 10 9 8 9 10 11 11 11
4 5 4 4 4 3 5 6 7 8 8 7 8 7 3 4 8 9 10 10 8 9 8 5 6 9 8 7 5 8 14 17 15 14 15 18 20 23 23 19 17 18 17 16 16 16 14 12 11 11 10 8 7 8 8 7 5 2 4 6 4 4 7 9 10 13 16 17 16 15 15 15 16 17 17 16 17 18 18 19 17 16 16 16 16 15 14 12 10 9 9 9 10 11 12 12 12
3 5 5 3 2 4 7 6 8 8 8 7 8 6 3 5 7 7 9 9 7 8 9 8 2 6 7 6 6 7 13 16 13 14 15 16 16 19 22 19 18 18 16 15 15 14 13 12 10 9 10 10 9 7 7 8 6 4 5 5 4 5 8 9 10 12 15 16 15 15 16 17 18 18 17 17 17 18 18 18 17 16 16 15 16 15 13 12 9 8 9 10 10 11 12 12 12
1 3 3 4 3 4 7 6 7 7 7 7 7 5 5 7 6 4 6 8 8 7 6 8 4 6 6 3 4 6 9 13 12 13 13 14 15 16 19 19 19 18 16 16 16 15 14 13 11 9 10 11 11 8 9 10 7 7 8 6 5 5 7 10 11 12 14 15 15 15 16 18 18 17 17 17 17 18 19 18 17 16 16 16 16 15 13 12 9 7 9 10 10 11 11 11 10
1 2 2 5 5 5 4 4 8 7 7 8 6 5 9 8 5 5 6 6 9 7 1 6 9 3 4 2 4 6 8 11 10 12 12 13 15 16 18 18 18 17 16 16 16 15 13 12 11 11 11 11 11 12 12 10 7 9 10 6 5 6 8 10 12 13 14 15 14 14 16 17 17 17 17 17 17 18 19 18 17 17 16 16 16 15 13 11 8 6 8 9 9 10 10 10 9
2 3 3 5 6 6 4 4 7 7 8 9 5 4 9 9 6 7 7 5 8 8 5 8 11 6 8 8 7 9 9 10 9 10 11 12 14 15 17 16 17 16 16 16 15 14 12 11 9 9 9 9 7 11 15 13 10 11 11 9 9 10 11 12 13 15 15 14 13 14 16 16 15 16 18 17 16 17 18 17 17 17 16 17 16 14 12 11 8 6 7 9 9 9 9 9 8
2 4 4 5 5 6 5 4 5 7 9 9 6 3 8 9 7 7 6 7 9 10 10 10 11 10 12 11 10 11 12 12 11 12 12 13 13 13 15 15 14 14 15 16 15 13 12 11 8 7 7 7 4 7 15 15 12 13 14 12 14 15 15 16 16 17 16 16 14 14 16 16 14 16 17 16 17 18 18 17 17 17 17 17 16 13 11 10 8 6 6 7 8 9 9 9 8
4 4 4 4 5 6 5 5 5 8 9 9 6 4 8 9 7 5 5 9 9 10 11 11 12 12 13 12 12 13 14 15 15 16 16 15 15 14 15 14 14 13 12 13 14 14 12 10 8 6 4 6 5 4 11 15 11 13 14 13 15 18 18 19 19 19 19 18 16 16 16 16 15 16 17 16 16 19 19 18 18 17 17 17 15 13 11 9 8 6 6 6 7 8 10 10 9
3 2 4 4 6 7 7 8 6 7 8 9 7 5 7 8 6 4 4 8 8 9 10 10 13 12 13 14 13 14 16 18 19 20 20 18 17 17 15 14 14 13 12 11 12 14 12 10 8 7 4 3 5 3 7 12 11 13 15 13 14 17 20 22 22 21 21 20 18 19 17 16 16 16 16 16 16 18 19 19 18 17 17 16 14 12 10 9 8 7 6 6 7 9 9 9 9
2 1 4 6 9 9 8 8 7 6 7 9 8 7 8 6 4 5 6 9 8 8 8 7 11 11 12 13 13 16 18 20 21 21 20 18 16 15 14 13 13 12 13 12 11 13 13 10 9 7 6 4 1 2 4 7 12 15 16 18 17 17 20 23 24 23 22 22 20 19 18 17 17 16 16 17 16 16 18 19 18 18 16 15 13 11 10 9 8 7 6 7 8 8 8 8 8
2 0 5 9 8 9 9 8 8 5 4 7 8 7 8 7 4 6 8 8 7 7 7 8 11 11 12 12 14 16 18 20 20 20 19 17 15 14 13 13 12 12 11 11 11 12 13 11 9 8 6 5 3 1 3 4 11 17 19 21 22 21 22 25 25 24 24 23 23 20 17 18 18 17 17 17 16 15 18 19 17 17 15 14 13 11 10 9 8 8 8 8 7 6 6 7 7
2 4 8 8 5 8 9 7 7 4 4 6 8 8 8 8 5 4 4 4 7 7 9 10 11 12 12 12 14 16 17 17 18 19 18 17 17 16 15 14 13 12 11 11 11 11 13 12 10 8 7 5 3 2 2 3 8 16 20 22 24 22 22 26 25 24 25 24 25 22 17 18 18 17 18 17 16 16 18 18 17 16 15 14 13 11 10 10 9 9 9 8 6 6 6 6 7
2 6 7 5 4 7 7 7 6 3 4 5 6 8 8 9 8 7 7 9 10 9 10 11 11 12 12 12 13 14 15 16 17 18 18 18 18 17 16 15 14 13 12 12 11 11 13 13 11 10 8 6 3 2 2 3 6 11 16 21 24 20 20 26 24 22 24 23 24 24 17 17 19 18 19 18 16 17 17 17 17 16 15 15 13 12 11 10 9 8 8 7 5 6 6 6 7
3 8 7 5 4 5 6 5 4 3 5 6 7 8 9 10 9 9 12 13 11 11 10 11 11 12 12 13 13 13 15 16 17 17 17 18 18 17 16 15 15 14 13 13 12 12 14 14 13 12 10 8 5 3 1 2 5 8 11 16 20 19 21 25 22 19 21 21 23 25 20 17 18 19 19 19 17 18 18 17 16 16 15 15 13 12 11 10 9 7 6 5 5 6 7 7 7
4 8 6 5 4 6 6 5 6 6 6 7 8 9 7 9 10 10 12 11 10 11 10 11 11 11 12 13 13 13 14 15 16 16 16 16 17 17 16 16 15 14 14 14 13 13 14 14 14 14 13 11 8 5 2 2 5 8 10 12 16 20 22 24 24 21 19 22 24 24 24 21 16 18 20 19 18 19 19 16 15 16 15 14 13 12 11 11 8 7 5 4 5 6 7 8 7
5 6 6 6 6 6 6 6 7 7 6 8 10 9 10 12 11 10 10 10 10 10 10 10 10 11 11 12 13 13 13 14 15 15 15 15 16 17 17 16 15 15 15 14 14 14 15 15 15 15 15 13 10 7 5 3 4 7 10 11 13 18 22 26 28 28 24 23 26 25 25 24 19 17 19 19 18 18 17 16 15 14 14 13 13 12 11 11 8 6 4 4 6 7 8 9 8
6 6 6 6 7 7 6 6 7 6 6 7 9 10 12 10 5 6 9 9 10 10 11 10 10 11 11 11 12 13 14 14 15 15 16 16 16 17 16 15 14 15 15 15 15 15 16 16 15 15 15 14 11 9 7 4 4 6 9 10 12 17 22 26 26 27 27 24 29 29 23 24 23 18 18 19 18 17 16 16 15 13 13 13 13 12 11 10 8 6 4 3 6 9 10 9 9
7 6 7 7 7 8 6 7 7 6 5 6 9 11 11 7 4 8 11 9 10 11 11 11 11 11 11 12 11 12 13 14 14 15 16 16 16 16 15 14 13 13 15 16 16 16 16 16 16 16 16 15 13 11 9 7 5 5 7 9 13 15 18 24 25 24 26 26 31 33 24 23 25 19 15 17 18 18 17 17 16 14 13 13 12 12 11 10 8 5 4 4 8 10 11 10 9
6 5 5 7 7 7 6 6 7 6 5 7 10 10 8 6 7 13 12 9 10 11 11 11 11 11 10 11 10 10 12 14 14 15 16 15 15 15 15 14 13 13 14 15 15 16 16 16 16 16 17 16 15 13 12 10 7 6 7 8 12 15 15 21 28 27 24 26 31 33 27 23 23 18 14 16 18 19 21 19 17 16 15 13 12 11 11 10 8 6 5 6 9 11 12 11 9
7 5 3 5 7 6 6 5 6 6 6 7 8 6 5 8 11 13 11 11 12 11 11 10 10 10 9 10 10 10 12 14 15 15 15 14 14 15 14 14 14 13 13 14 14 16 16 16 15 15 17 17 16 15 14 12 9 7 7 7 8 13 14 18 27 28 24 25 29 31 28 25 22 18 15 15 16 19 22 21 18 17 16 15 14 13 12 10 9 8 6 7 9 11 12 11 10
5 4 3 3 4 5 8 5 6 7 7 8 9 5 4 9 12 12 11 11 12 10 11 10 9 9 9 9 9 10 11 13 15 15 14 13 12 13 13 13 13 13 13 13 14 14 15 15 15 16 17 17 16 15 14 14 11 7 7 8 7 10 13 17 22 25 26 27 29 30 28 27 24 18 16 15 15 19 21 20 19 17 17 17 15 14 12 10 10 8 7 7 10 11 12 11 10
4 4 4 2 2 4 8 6 5 4 7 9 9 5 3 10 12 12 11 11 11 10 10 10 10 10 9 9 9 9 10 12 14 14 13 12 11 10 12 12 12 13 13 14 13 13 14 15 16 17 18 18 16 15 14 14 13 9 7 8 9 9 12 15 17 21 27 27 31 33 28 27 27 20 17 16 16 19 19 19 19 17 18 17 15 14 12 11 10 9 8 7 9 12 14 12 10
4 5 3 2 3 2 6 6 3 1 6 9 8 5 3 9 12 12 12 11 11 10 11 11 10 10 9 8 8 8 9 10 12 12 11 10 9 9 10 11 12 13 13 14 14 14 15 14 15 17 18 18 17 15 14 13 12 11 9 9 10 10 11 13 14 19 27 28 33 38 32 27 27 22 18 17 16 17 18 19 19 18 19 18 15 15 13 12 11 10 9 7 8 12 15 13 10
4 4 2 1 4 3 2 5 4 1 5 6 7 6 3 9 13 13 12 12 11 10 11 11 9 9 8 7 8 8 8 8 8 10 9 8 8 8 9 10 11 12 13 14 15 15 15 15 15 17 18 18 17 16 15 13 11 11 11 10 10 10 11 12 13 18 26 29 33 38 35 29 24 22 20 17 16 15 16 19 20 19 19 18 16 16 14 12 12 11 10 9 8 10 15 14 11
2 3 3 2 3 4 2 1 2 2 6 6 6 7 4 10 14 13 12 12 11 10 10 10 9 8 8 7 7 7 7 7 7 7 7 6 7 8 8 9 11 12 13 14 15 15 15 15 15 16 17 18 18 16 15 14 12 11 10 11 10 8 9 11 12 18 25 27 31 36 38 35 26 22 21 18 17 15 16 19 20 21 19 17 18 16 15 14 13 12 11 11 9 9 13 15 12
3 3 4 4 3 3 1 2 2 3 6 4 4 5 5 10 14 13 12 11 9 10 10 9 9 8 7 7 7 7 6 7 7 5 5 5 6 7 8 9 10 12 13 14 14 15 16 16 16 16 17 17 17 17 16 15 14 13 12 12 10 9 9 11 11 16 22 23 29 33 37 38 28 22 21 18 18 16 18 19 19 22 19 17 19 17 16 15 14 14 13 12 12 11 13 15 14
4 3 4 4 5 3 1 2 2 2 5 2 2 4 5 10 13 13 12 11 9 10 10 9 9 8 7 7 7 7 6 6 6 4 4 4 5 6 7 9 10 11 12 14 15 16 16 17 17 17 17 17 17 17 17 15 15 16 16 14 11 10 10 10 10 15 21 21 27 32 36 36 28 22 19 17 17 17 20 19 17 22 20 16 18 17 17 16 14 15 13 12 13 14 14 15 15
3 5 5 4 4 2 2 2 2 3 5 2 3 5 5 8 11 12 12 12 11 11 11 10 10 8 7 7 7 6 5 5 4 3 2 3 4 6 7 8 10 11 12 13 15 16 16 17 18 17 17 17 17 17 17 15 15 17 17 15 11 9 9 7 9 13 19 21 26 33 34 34 28 22 17 16 17 16 19 18 16 20 19 18 17 15 16 16 15 15 13 12 13 14 13 14 17
3 4 5 4 3 2 2 4 4 3 4 2 4 5 4 7 9 11 12 11 10 11 11 10 10 9 8 7 7 6 4 4 3 2 1 2 4 5 7 8 9 10 11 13 14 15 16 17 18 17 17 17 17 17 17 16 16 17 16 14 10 8 8 5 6 9 17 20 24 30 30 30 30 24 20 19 17 16 17 16 15 16 16 19 19 16 16 17 16 16 15 14 13 13 12 13 16
3 3 5 4 2 4 3 4 4 4 3 3 5 5 3 6 7 9 10 10 9 9 10 10 9 9 8 8 7 6 5 3 3 2 1 1 3 5 7 8 9 10 11 12 14 15 16 17 18 17 16 16 17 17 17 17 16 17 16 13 9 7 7 4 2 5 14 20 24 27 25 25 26 24 23 22 19 17 16 17 17 15 16 18 18 16 17 19 18 17 16 16 14 13 12 13 14
2 2 6 6 4 5 4 1 3 4 3 4 5 4 4 7 8 9 9 9 9 10 11 10 9 8 8 8 7 6 6 5 3 2 0 2 3 5 7 8 9 10 11 12 13 15 16 17 18 17 16 15 17 18 18 17 15 16 16 14 11 7 5 3 2 2 8 18 26 27 23 22 22 21 22 22 20 17 16 18 19 17 17 18 17 16 16 18 19 18 18 17 16 15 13 14 13
2 1 3 7 6 6 5 3 4 5 4 4 5 5 4 7 9 9 9 10 10 11 12 11 9 9 8 7 7 6 5 5 3 1 1 2 3 5 6 8 10 11 11 11 12 14 15 17 17 16 16 15 16 17 17 17 14 14 15 14 13 10 7 4 1 2 2 10 22 25 23 22 19 16 18 17 18 19 15 14 16 17 18 17 17 17 16 18 18 19 19 17 18 17 14 13 13
2 3 2 5 6 6 6 6 6 5 2 4 5 6 3 5 8 9 9 11 12 11 10 8 8 9 9 8 7 6 5 5 3 2 2 2 3 5 7 8 9 11 11 12 12 13 15 16 17 16 16 15 16 16 17 16 14 14 14 13 12 12 10 7 3 2 2 7 14 20 22 23 19 14 14 15 16 21 19 15 12 14 17 16 16 16 16 18 18 18 19 17 18 17 14 14 13
3 5 3 5 6 7 7 6 7 5 2 3 7 6 6 4 5 8 9 10 11 10 9 8 9 10 10 8 7 7 5 5 4 3 2 1 3 5 6 8 10 10 11 12 12 13 14 16 17 17 16 15 15 16 16 16 15 14 13 12 11 11 11 10 6 1 5 5 7 14 20 22 20 15 13 14 15 17 20 20 15 13 14 12 14 16 15 16 18 17 16 16 16 16 15 15 14
4 5 3 4 5 7 6 6 7 4 3 5 6 4 7 5 3 7 7 10 12 12 11 12 12 12 11 9 8 8 6 5 4 3 2 1 2 4 6 8 9 10 10 12 13 14 14 15 16 17 16 15 15 15 15 14 14 13 12 12 11 11 11 10 8 3 5 6 2 8 16 18 19 17 13 13 14 13 16 20 18 15 12 10 14 17 15 15 16 14 13 13 13 13 14 15 15
4 2 4 3 4 5 5 6 6 3 5 7 2 2 6 5 2 5 6 9 10 10 10 12 12 12 11 10 9 8 6 5 4 3 2 1 2 3 5 7 9 10 11 12 13 14 14 14 16 17 16 16 15 14 14 14 13 12 12 12 12 11 11 11 9 7 0 8 6 3 8 13 16 18 14 10 11 12 14 16 17 16 13 12 16 15 15 13 12 11 10 11 11 12 14 14 14
1 4 5 4 4 3 4 4 3 5 6 4 2 3 4 5 1 2 3 3 5 4 6 8 9 10 10 9 9 8 6 5 4 4 3 1 1 3 5 7 9 11 11 12 13 14 15 15 16 16 17 17 16 15 13 13 12 11 11 11 11 11 10 11 9 9 8 2 9 7 4 6 10 14 14 10 8 10 12 13 14 16 15 14 15 11 13 12 10 9 9 9 10 10 12 12 12
4 5 4 4 4 2 4 3 3 6 4 2 3 2 5 6 2 0 2 1 3 4 4 5 8 9 9 9 7 6 5 4 4 4 2 0 2 3 6 8 9 11 12 12 12 13 15 15 16 16 17 17 16 15 13 12 12 11 10 10 10 10 9 9 9 9 11 7 2 6 5 5 6 9 12 10 7 8 10 11 11 13 15 14 14 11 10 12 11 10 9 9 8 9 9 10 11
4 4 3 4 4 2 4 3 3 5 1 4 2 1 4 5 1 1 1 3 5 5 4 5 7 9 9 7 4 4 3 3 3 3 1 1 2 4 6 8 9 10 12 12 13 14 15 15 16 17 18 17 16 15 14 11 11 11 10 9 9 9 9 7 8 8 9 10 7 2 3 5 6 7 10 11 9 8 9 8 7 9 11 12 15 11 8 11 10 9 9 10 9 9 9 9 10
4 4 4 5 4 3 4 4 3 3 1 3 1 2 4 3 1 2 1 2 4 5 5 5 6 8 9 7 5 5 4 4 4 3 1 1 2 4 6 7 9 10 12 12 13 15 15 15 16 17 17 17 15 15 13 11 10 10 10 9 8 8 8 7 6 7 7 8 8 5 2 2 5 6 7 10 10 8 8 8 6 6 9 11 15 12 7 8 9 8 9 10 10 10 9 9 10
3 3 5 5 3 4 5 4 4 4 2 1 2 2 4 2 1 2 2 2 3 4 5 5 6 8 7 7 6 5 5 5 4 2 1 0 2 4 5 7 9 10 11 12 13 15 16 15 16 17 17 16 15 14 13 12 11 10 10 10 9 7 7 7 5 5 6 6 5 5 3 1 2 4 5 7 8 7 6 6 5 6 8 11 14 11 7 7 8 8 8 9 10 10 10 10 10
0 2 5 3 3 3 4 3 4 5 5 1 2 2 3 1 2 3 3 4 4 4 6 7 8 8 6 5 5 5 5 5 4 3 1 1 1 3 5 7 9 10 11 12 13 15 16 16 16 17 17 16 15 14 13 12 11 10 10 9 9 8 7 7 6 5 4 4 4 3 2 2 1 1 2 3 6 6 4 4 4 6 7 8 11 11 8 8 8 8 8 9 10 10 11 11 11
1 3 2 3 4 5 4 1 0 3 5 2 0 4 3 1 4 6 5 5 6 6 7 8 9 9 7 5 5 5 5 4 3 2 1 1 1 3 5 7 9 10 11 11 12 14 16 16 16 16 16 15 15 14 12 12 11 11 11 10 9 8 7 7 6 6 5 4 3 3 2 2 2 1 1 1 4 6 6 5 5 6 6 7 9 10 9 9 9 9 9 9 10 11 11 12 13
4 3 4 2 2 3 3 3 1 3 4 1 1 5 5 2 1 5 7 6 7 7 8 8 9 9 8 6 5 5 4 2 2 1 1 1 1 3 5 8 9 10 11 10 11 14 15 15 16 16 16 15 15 14 13 12 12 11 11 10 10 9 8 7 7 7 6 6 5 4 3 3 3 2 2 2 2 5 7 8 8 7 6 6 8 9 9 9 9 9 10 10 10 10 11 11 13
4 2 2 2 3 1 1 2 3 4 4 1 0 4 4 2 1 3 6 7 7 8 8 9 9 9 8 7 7 6 5 3 3 3 3 1 1 3 5 7 9 10 10 9 11 14 14 15 16 15 15 15 14 14 13 12 12 11 11 11 11 9 8 8 8 8 8 7 7 7 5 4 4 2 2 2 3 4 6 8 10 10 9 7 7 7 8 8 8 9 10 11 11 10 11 12 12
2 3 2 1 3 4 2 2 3 4 5 3 2 3 1 3 3 2 3 6 8 8 8 8 8 8 7 5 5 5 4 4 4 4 2 1 1 3 5 7 9 10 10 10 11 14 14 15 16 16 15 15 14 13 13 12 11 11 11 11 11 10 9 9 8 8 8 8 8 8 8 6 5 3 2 3 4 5 6 7 8 10 10 9 7 7 8 8 9 10 11 12 11 11 12 12 13
1 2 1 1 0 2 2 1 1 3 5 4 3 4 2 5 4 4 2 2 6 7 7 7 7 8 6 5 4 3 2 3 3 2 2 1 1 3 5 7 9 10 10 10 12 14 14 15 16 16 15 15 14 13 12 11 10 10 11 11 11 11 10 9 8 8 8 8 8 8 9 8 8 6 4 5 7 7 8 8 8 8 8 8 7 8 8 8 9 11 11 11 11 12 13 13 13
4 3 3 3 2 3 4 1 1 1 4 4 4 5 2 5 4 3 3 2 3 5 6 6 6 7 6 5 4 2 2 2 3 2 2 1 1 4 5 7 9 11 11 11 13 14 14 15 16 16 15 15 15 13 12 11 10 10 10 10 11 10 10 9 8 8 7 8 8 7 8 8 9 9 7 8 9 10 9 10 11 10 9 9 8 7 8 8 9 10 11 11 11 12 13 14 14
Wind_Direction
169 205 186 170 191 198 189 210 211 184 237 237 212 189 121 81 11 184 190 207 235 55 9 325 331 286 261 320 103 78 35 23 19 332 81 62 115 129 140 149 155 158 156 153 153 161 158 157 157 155 159 160 161 163 164 164 164 163 161 159 157 156 154 154 153 153 152 152 152 151 152 150 151 152 151 151 150 147 143 140 136 130 129 130 131 132 131 129 126 125 124 122 119 117 116 113 111
281 201 175 176 191 207 178 209 235 174 212 232 187 151 97 114 191 209 274 331 331 1 8 317 86 102 178 54 113 102 57 43 42 59 76 98 127 111 134 142 151 151 149 149 149 155 151 153 152 149 151 154 156 158 162 164 163 161 159 156 153 151 152 153 152 152 151 151 150 149 148 148 152 152 153 153 151 146 142 140 134 132 132 133 134 134 133 129 127 126 123 120 118 117 115 113 112
225 188 182 183 189 221 177 203 246 195 208 218 147 110 103 164 176 92 348 339 349 23 132 144 117 87 175 111 75 80 71 53 50 73 104 152 159 124 141 143 150 150 151 150 150 154 147 149 148 142 143 146 150 153 156 157 160 158 155 153 150 150 152 153 153 154 152 151 150 148 146 145 147 149 153 152 150 145 141 138 133 133 133 134 136 133 129 126 125 124 122 120 118 118 115 111 109
157 200 197 190 188 216 200 203 250 235 217 200 124 119 133 166 96 30 359 3 38 137 145 140 119 14 82 102 94 89 72 55 43 38 77 60 37 139 150 150 151 151 155 153 152 151 142 144 140 133 135 141 145 149 151 152 157 157 154 152 151 153 154 154 156 156 154 153 150 149 147 144 145 149 152 148 145 141 138 136 134 134 135 136 134 129 126 124 125 125 124 121 121 120 114 108 103
167 204 208 223 214 196 213 210 245 242 229 20 115 116 124 118 59 13 27 78 137 144 142 138 117 78 79 73 91 90 19 37 42 21 21 12 17 119 151 148 151 153 150 143 133 111 119 128 121 115 118 129 135 139 148 152 157 159 159 155 154 155 155 155 157 158 157 155 152 151 149 145 147 150 148 142 138 137 137 137 136 136 135 134 131 128 126 126 127 127 127 125 125 122 115 110 104
184 180 195 241 258 231 234 204 212 216 51 357 41 92 105 101 50 44 99 123 127 127 137 130 121 119 98 69 66 63 16 348 22 16 23 11 11 44 95 120 109 105 78 60 66 66 83 97 94 94 92 96 100 104 120 138 154 161 160 157 156 157 157 154 155 157 155 155 153 152 149 147 147 147 144 140 138 138 139 138 137 135 133 132 131 130 129 129 129 129 129 129 130 126 119 114 109
193 176 183 209 175 223 230 197 199 164 69 352 349 55 59 59 58 145 141 132 122 121 119 114 120 119 107 106 85 64 38 20 23 26 32 29 20 33 45 31 33 55 51 43 54 60 68 76 78 82 75 72 68 65 64 58 83 124 149 153 155 157 156 154 153 152 152 154 153 150 150 148 147 146 146 143 141 141 141 139 137 135 135 133 132 132 131 131 130 130 131 132 132 129 124 119 115
214 202 196 203 176 204 224 166 127 57 75 31 1 22 353 29 147 163 150 137 126 123 122 129 123 102 84 109 94 68 42 28 43 37 35 45 44 44 43 35 39 52 53 51 63 69 78 89 90 90 85 81 75 70 51 33 33 32 39 88 142 154 151 149 149 150 152 154 153 152 153 150 148 152 150 146 144 144 142 140 140 138 136 134 134 132 131 131 131 132 133 134 132 130 129 125 122
214 212 206 220 190 181 199 141 111 70 79 75 53 47 17 84 170 161 144 130 123 118 119 141 120 102 93 92 90 78 39 27 43 41 40 50 52 57 57 61 64 61 65 67 74 81 92 106 107 106 109 111 107 104 81 41 25 13 15 26 42 135 150 150 153 156 157 157 158 156 155 152 152 154 151 148 145 144 143 143 143 140 138 136 135 134 134 135 134 135 133 132 129 129 131 128 126
203 212 219 216 189 175 172 138 119 104 86 77 69 61 75 135 164 152 138 127 126 113 92 100 105 111 119 98 89 72 41 34 40 39 46 53 53 61 66 71 74 70 72 74 79 83 88 102 114 112 112 114 107 101 99 91 63 20 21 47 30 165 176 167 163 163 162 161 160 158 156 155 157 155 150 149 146 146 147 147 146 142 141 139 137 139 139 138 136 134 130 127 127 129 132 130 127
196 184 236 210 192 179 150 129 115 111 101 96 85 70 91 141 149 135 130 124 119 106 86 95 110 115 116 98 90 72 52 43 38 34 51 61 57 61 68 72 77 77 74 77 82 85 86 93 114 121 121 122 114 104 102 103 96 102 155 163 173 197 193 180 172 168 165 162 160 160 161 159 159 157 154 152 150 151 151 150 150 146 144 141 141 143 141 138 134 129 125 125 126 127 130 129 127
207 160 216 208 177 142 127 122 113 114 107 96 87 76 83 135 131 124 128 126 122 107 66 45 115 121 114 100 91 76 54 45 39 38 57 66 60 62 68 71 78 79 75 79 83 87 92 92 106 126 136 139 131 120 116 117 106 116 154 152 151 166 180 180 179 173 167 164 163 165 167 164 162 161 158 156 156 155 154 154 153 150 147 145 144 144 141 135 130 128 125 126 126 124 126 128 125
214 174 213 180 118 127 128 121 119 117 101 82 81 72 66 104 94 102 124 113 107 104 58 22 94 118 102 105 86 66 49 44 43 51 63 67 63 64 70 74 74 75 74 74 76 80 86 91 108 134 147 149 142 139 144 139 125 145 159 152 145 152 176 186 191 184 174 169 170 172 170 168 166 163 160 160 163 160 157 157 155 154 152 149 147 147 142 133 129 127 125 125 126 124 125 125 120
234 200 231 141 133 141 132 134 135 120 95 84 85 80 73 74 52 62 111 102 74 55 50 17 24 113 106 130 90 49 39 41 48 63 68 69 67 67 73 77 73 71 68 67 70 71 74 80 94 117 137 146 146 153 159 153 149 164 160 157 170 171 187 197 203 198 187 179 178 179 173 171 169 165 164 164 166 162 159 158 158 159 156 154 152 150 144 135 129 125 124 124 124 125 124 122 118
269 199 194 143 148 141 131 131 124 111 99 95 88 93 88 64 39 59 47 84 78 27 40 33 18 109 125 145 89 42 37 44 52 66 71 73 72 71 72 73 73 70 65 63 66 68 70 74 78 94 119 138 151 164 166 163 167 172 165 168 197 193 190 200 211 206 195 191 186 183 179 178 175 170 167 163 163 161 161 162 163 163 161 159 157 154 149 137 131 127 124 123 125 125 123 123 121
274 220 175 151 147 137 130 128 126 112 105 105 97 104 98 70 49 69 36 68 95 45 47 48 28 51 70 71 69 45 44 49 54 62 64 67 67 69 68 67 70 69 65 60 60 65 65 70 77 87 114 133 152 176 176 175 178 187 194 207 212 197 188 194 207 206 199 199 193 187 184 181 179 174 168 161 161 162 164 166 166 166 165 164 161 158 152 141 135 135 128 125 127 125 125 126 125
247 227 177 149 138 132 136 146 136 116 113 116 121 132 110 91 68 79 71 78 93 71 61 61 55 58 64 66 60 51 51 52 54 57 54 55 55 58 60 56 59 61 62 59 56 61 59 62 71 79 112 133 146 189 190 192 185 192 205 204 198 196 194 189 194 201 200 199 194 188 184 180 177 174 170 164 164 167 169 171 171 171 169 167 164 160 157 146 139 143 136 131 133 132 131 130 131
229 204 160 142 126 116 112 106 100 116 119 110 109 113 109 109 101 107 111 92 91 89 81 82 80 73 72 68 61 59 59 58 56 57 54 50 47 47 48 44 42 43 48 54 53 52 51 51 55 63 94 139 155 193 206 215 204 189 199 197 190 190 189 183 186 196 199 197 193 187 184 182 177 174 174 170 170 172 174 176 175 175 173 171 167 163 161 151 145 152 151 142 142 138 132 133 138
234 173 137 113 101 97 87 92 92 107 111 106 105 101 104 106 111 152 153 119 116 106 100 102 92 81 77 68 63 63 61 60 55 54 52 48 46 44 42 38 33 30 30 38 45 43 43 40 39 44 47 121 164 195 213 226 217 192 194 198 195 189 181 179 184 193 197 198 195 188 185 186 180 176 178 174 173 175 177 179 177 177 176 173 169 166 164 157 156 164 169 155 141 135 131 136 141
228 202 132 105 104 106 91 89 84 89 109 117 114 104 105 108 133 166 140 121 123 105 98 105 91 77 73 65 61 61 59 57 54 54 53 50 50 48 46 41 34 29 24 27 34 33 30 26 23 25 25 41 106 206 208 220 210 196 192 194 198 193 183 181 186 192 195 198 198 195 189 187 183 179 179 175 172 173 177 179 177 175 176 175 169 167 170 168 165 173 176 157 146 143 138 137 136
194 251 111 115 123 114 95 92 89 90 110 113 122 122 112 115 133 149 148 133 115 92 71 73 78 69 65 64 60 58 58 58 57 58 59 57 55 53 50 45 39 31 23 23 28 26 21 18 12 9 13 20 20 276 233 214 201 201 199 196 197 196 190 186 188 194 197 198 198 202 198 187 183 180 176 174 171 169 174 178 176 173 173 175 172 170 175 173 167 173 173 166 167 160 143 137 132
128 78 94 112 124 111 102 98 96 104 117 120 136 129 115 118 102 101 157 135 99 87 72 67 67 62 58 58 60 60 60 61 61 60 60 58 55 52 48 44 39 32 25 20 19 21 19 16 8 1 2 3 6 352 279 245 212 206 204 199 197 198 197 191 190 194 198 199 195 200 208 193 183 180 175 173 174 172 174 178 176 174 174 174 176 175 174 174 171 171 174 177 178 162 146 142 137
152 107 110 106 73 93 105 101 102 142 141 128 123 117 131 130 96 64 72 82 88 85 79 77 72 72 70 66 65 64 63 62 61 60 57 56 53 49 46 42 37 31 25 18 12 14 15 13 9 1 357 356 357 356 320 276 244 221 210 203 201 202 201 199 197 196 198 201 197 198 210 202 187 181 178 176 177 177 177 181 179 175 175 174 176 178 174 174 173 168 171 176 175 167 158 147 143
150 124 128 116 74 75 96 104 117 136 113 108 119 132 148 135 107 82 81 85 92 91 89 90 86 86 83 77 71 66 66 65 63 61 60 58 54 51 48 45 40 34 26 16 9 9 10 10 6 1 356 355 351 337 326 290 259 244 229 215 211 206 203 203 204 203 202 201 202 200 205 210 196 184 180 179 179 180 182 184 181 175 174 174 175 178 175 172 170 167 168 173 178 178 167 154 150
114 121 128 126 102 89 105 120 124 116 108 120 132 133 124 116 111 100 95 96 100 102 102 101 98 93 85 79 76 72 68 66 66 64 63 61 57 53 49 46 42 36 29 16 9 8 8 6 3 0 356 351 348 334 305 259 248 248 242 231 221 213 208 207 205 205 206 204 201 198 202 209 205 191 183 182 182 183 187 185 181 176 174 175 176 179 175 170 166 163 174 185 182 182 173 163 154
103 124 131 134 116 110 128 133 128 124 129 137 131 125 115 114 113 101 103 110 112 114 110 107 104 95 87 82 77 74 70 64 62 61 62 60 55 51 46 43 41 37 31 21 14 10 8 6 3 1 357 352 347 336 315 263 239 244 244 240 227 221 216 210 207 205 205 206 200 194 198 203 206 203 188 185 185 184 188 185 178 176 175 177 178 180 175 169 167 161 181 193 173 172 167 161 157
116 128 124 129 121 121 141 136 133 132 139 153 139 130 129 135 150 122 118 124 125 123 117 114 108 98 92 87 79 73 69 64 61 59 58 56 52 49 44 41 40 38 31 26 19 11 9 7 4 1 359 358 350 339 327 291 255 245 242 241 232 230 225 214 210 209 208 211 204 197 196 198 205 212 194 187 188 184 187 185 180 177 176 179 180 181 175 169 167 160 182 182 153 154 152 155 158
133 142 132 131 130 125 140 145 147 148 149 171 151 136 144 168 190 136 134 141 137 131 123 119 109 100 93 86 81 73 68 65 62 59 56 54 52 49 45 39 36 38 34 29 21 14 11 6 3 2 0 1 355 347 338 316 280 258 242 240 236 237 236 223 212 208 210 215 211 202 197 200 206 211 197 189 189 186 189 188 185 183 180 180 181 182 178 171 165 159 169 160 142 140 143 150 153
150 180 159 144 155 132 131 149 160 174 159 167 162 150 157 158 129 128 138 145 141 135 126 120 110 102 96 89 82 76 71 68 63 59 57 57 56 54 50 43 36 39 38 31 25 19 14 7 3 2 360 0 359 352 344 330 299 275 253 248 245 240 246 235 218 211 209 214 216 208 202 206 208 209 200 193 190 185 189 191 186 185 184 182 180 181 179 174 168 159 156 149 139 135 139 146 146
163 209 221 168 184 140 121 148 170 178 149 170 193 183 152 129 126 135 144 148 148 143 130 123 113 104 97 92 86 79 74 70 67 61 61 61 60 58 53 49 42 41 40 32 27 21 15 9 3 1 359 359 359 354 347 338 320 293 266 261 263 248 246 241 229 223 213 208 215 213 208 210 211 211 205 198 195 188 190 193 188 183 183 181 178 179 180 179 173 164 157 148 139 135 140 145 143
174 193 223 211 222 132 120 145 184 182 154 187 224 229 153 137 142 148 150 156 155 145 134 125 116 109 99 94 89 84 78 72 72 68 65 63 61 59 54 50 44 40 38 30 25 20 15 11 5 1 359 357 358 356 349 340 331 312 279 269 274 258 247 245 237 229 218 208 210 212 210 209 209 211 208 202 199 193 191 192 189 185 182 179 177 178 182 184 177 171 168 153 146 142 140 143 141
184 200 207 206 262 129 122 141 197 202 166 194 228 244 165 149 153 153 158 166 160 148 137 128 120 115 108 102 94 89 85 78 75 70 65 63 59 57 52 47 42 38 34 28 23 18 14 10 6 2 359 357 356 354 349 341 335 323 299 281 274 265 256 253 244 232 225 216 209 208 209 208 207 207 206 205 200 197 196 191 189 189 182 178 176 178 184 187 180 176 178 163 155 149 141 144 144
186 244 237 175 241 174 133 145 162 219 181 202 229 246 187 156 159 160 165 171 163 151 139 132 126 119 113 109 102 97 93 85 78 68 62 62 57 54 51 46 41 36 32 27 22 17 13 8 6 2 359 356 353 352 348 340 336 326 310 299 283 269 261 254 247 235 227 220 211 205 204 205 207 206 205 206 202 200 198 191 190 190 184 179 176 176 183 189 182 178 181 172 168 157 143 145 148
182 244 258 200 262 271 169 150 133 214 216 226 234 245 234 161 161 165 170 173 167 156 145 138 129 122 117 112 106 99 95 88 80 71 62 60 57 53 49 44 39 35 31 27 23 18 13 7 4 2 360 356 352 350 346 338 335 331 318 309 296 276 260 247 243 233 225 221 210 201 200 204 207 206 203 205 203 200 198 195 194 190 184 181 177 176 183 187 185 184 180 170 174 163 142 144 151
224 241 258 222 234 251 253 145 121 237 244 245 237 239 223 161 161 169 170 175 173 158 149 141 132 128 124 117 108 100 98 91 81 75 68 60 55 49 45 41 37 35 30 27 25 20 15 10 5 3 1 358 353 349 346 341 334 333 328 315 306 290 259 243 241 228 223 221 206 196 196 204 210 206 202 204 201 195 195 198 197 190 184 181 178 178 184 186 185 187 182 168 164 157 143 148 155
303 292 289 276 258 249 272 63 82 276 265 255 257 252 207 168 167 171 168 175 176 157 150 145 139 137 131 124 112 104 101 95 88 80 74 62 50 42 42 39 35 34 29 25 22 18 16 12 7 5 3 359 356 353 349 346 339 335 335 330 322 313 275 245 238 222 216 212 200 192 193 203 209 203 200 203 201 199 196 195 193 188 186 184 181 181 184 186 185 187 188 173 157 149 148 153 157
295 277 271 277 282 282 99 118 131 266 272 262 280 262 202 177 172 170 170 172 171 160 158 157 150 147 141 132 120 112 105 100 99 90 79 62 48 39 39 38 32 30 26 22 18 16 14 10 7 5 3 1 359 356 351 346 342 335 332 336 330 319 295 251 237 219 207 202 196 192 194 202 207 202 201 202 202 205 200 195 191 187 187 186 184 183 185 186 185 187 190 178 158 154 157 159 157
276 271 273 267 262 277 97 147 161 236 265 253 244 243 187 174 172 169 172 175 176 173 172 168 157 150 146 136 125 122 114 109 112 112 94 60 47 39 38 35 29 24 19 16 14 12 10 8 6 3 2 2 1 357 351 345 341 334 328 330 327 320 314 269 247 225 208 202 198 194 196 203 206 206 207 204 206 210 202 198 194 188 186 188 187 185 183 181 183 188 187 181 171 163 163 163 158
263 275 279 276 277 304 157 174 177 216 256 250 232 236 175 164 174 175 181 184 183 180 179 173 161 157 154 144 132 129 123 120 134 137 103 54 40 35 35 32 25 19 12 11 10 7 6 5 3 1 1 1 1 358 352 345 338 335 329 328 327 328 332 296 252 226 211 203 194 193 198 204 208 213 217 214 212 213 207 202 199 194 187 187 191 189 182 178 182 189 189 187 182 170 164 166 166
261 298 283 285 329 300 247 172 168 202 251 258 231 233 177 164 179 183 190 191 183 180 182 175 169 167 162 153 148 147 144 154 180 161 93 15 28 28 29 27 21 14 6 5 5 3 2 1 359 358 359 0 1 358 354 346 339 339 337 336 334 335 346 317 228 197 210 203 186 184 191 199 203 210 216 218 217 214 210 206 202 199 194 189 190 190 187 185 186 188 193 192 186 179 172 172 177
243 297 294 307 326 294 283 163 177 198 221 240 228 237 207 186 191 186 187 190 181 180 181 178 178 173 162 156 158 161 158 172 194 171 151 343 16 23 25 23 17 10 3 0 1 1 357 356 356 355 357 360 1 359 356 351 345 346 346 348 348 347 1 334 251 172 202 192 180 180 185 193 198 204 209 212 215 213 213 212 208 202 200 196 191 190 190 191 190 191 196 194 191 191 181 176 182
267 152 319 322 315 292 275 238 230 236 232 208 216 260 233 186 197 196 185 185 188 192 187 184 185 176 170 171 171 174 173 176 185 185 246 323 2 14 18 18 12 6 359 356 356 356 353 353 353 353 355 358 0 360 358 355 352 350 350 354 355 351 356 359 316 294 235 166 169 176 181 187 191 198 203 201 203 206 209 213 211 209 208 201 193 192 192 193 194 196 198 197 196 199 187 180 185
300 76 18 307 290 279 264 244 240 262 283 170 207 267 263 184 197 198 193 195 198 199 189 190 207 193 182 183 178 179 184 176 176 203 233 303 355 9 11 10 8 2 355 352 352 350 350 351 351 353 354 355 359 359 359 359 356 353 350 352 358 354 346 342 339 279 216 140 152 169 175 179 180 187 194 191 195 204 209 211 207 211 214 206 194 190 190 191 194 198 199 199 201 200 190 186 190
1 50 351 282 270 266 262 252 246 270 336 182 213 258 277 253 197 179 196 210 200 191 178 186 218 214 192 183 180 181 185 179 182 203 218 292 358 8 6 5 4 360 353 351 349 348 347 348 350 352 352 353 357 357 358 360 357 355 351 350 355 359 351 336 331 282 188 152 135 160 167 172 181 190 192 189 192 199 208 212 207 207 213 211 199 190 187 187 192 198 197 200 203 201 196 191 191
31 32 305 280 277 271 266 259 255 273 291 245 216 221 264 271 165 164 201 220 208 196 190 197 215 217 197 184 182 182 181 181 191 205 215 304 3 9 2 3 3 358 355 349 346 345 343 345 348 350 351 351 354 354 355 357 356 355 354 352 349 353 358 347 345 9 190 195 127 146 157 163 175 183 183 188 194 195 202 208 209 209 208 220 218 197 185 183 186 190 189 194 201 199 201 197 191
35 343 255 237 249 257 253 256 263 257 263 268 221 157 270 279 156 178 208 226 227 209 198 205 214 214 197 182 180 179 178 179 188 208 213 287 2 5 360 2 1 358 354 348 345 345 343 344 347 348 349 348 349 350 350 351 352 354 354 353 350 350 356 353 356 13 206 200 204 179 158 164 172 174 174 184 198 205 209 208 210 215 209 224 236 208 176 173 175 178 179 187 196 197 203 205 198
334 237 241 226 226 240 244 254 279 263 249 259 109 119 270 279 237 208 197 233 255 223 196 195 197 198 185 178 180 176 176 177 183 206 201 160 352 359 3 0 357 354 352 349 348 348 346 346 346 346 346 345 345 345 346 347 346 350 352 351 351 352 354 354 360 5 1 196 197 214 204 184 175 169 171 179 192 204 213 210 209 217 213 223 245 221 177 175 176 176 179 180 191 200 205 212 211
232 246 269 260 235 217 239 222 221 257 258 86 88 141 241 258 272 206 122 119 245 228 215 190 182 185 177 175 178 169 173 182 187 211 205 104 333 355 3 354 350 350 352 351 350 349 347 345 344 343 342 342 342 340 341 343 342 344 345 346 349 350 352 356 3 1 358 8 161 193 189 178 168 162 164 170 185 197 205 209 208 217 219 224 244 234 186 181 180 179 185 185 191 201 205 211 218
251 271 288 275 262 240 255 247 232 262 300 76 44 293 251 260 304 57 162 203 212 217 234 212 186 179 165 157 161 162 178 201 211 229 250 326 338 359 356 347 348 350 351 350 348 348 347 345 344 342 340 341 341 339 339 338 339 341 340 342 343 344 348 352 359 4 359 0 8 53 143 154 153 155 159 165 178 188 193 202 204 214 220 226 241 239 191 174 175 175 186 193 197 203 207 212 216
322 322 315 298 298 297 277 267 273 290 60 86 21 288 267 260 96 50 343 202 190 197 218 211 177 166 158 157 173 186 192 209 224 230 241 316 356 3 348 344 349 349 349 348 346 347 347 345 344 343 342 345 344 341 339 337 337 339 338 339 337 335 341 344 353 4 5 1 2 16 57 149 160 159 161 164 168 170 180 189 189 206 221 227 237 237 201 175 176 180 189 195 201 205 207 213 219
342 343 302 295 317 314 298 292 306 318 335 118 155 250 297 327 91 70 59 119 152 183 189 171 159 160 161 167 180 197 206 215 225 225 221 350 16 357 343 347 350 349 348 345 344 346 346 344 342 342 343 344 344 340 338 337 337 337 336 336 336 331 328 331 338 350 2 7 2 7 24 39 167 179 183 172 164 159 168 180 182 205 221 227 234 234 210 187 184 188 194 197 202 206 206 210 219
23 308 275 301 353 318 296 319 344 327 304 269 173 250 322 359 158 138 121 141 152 168 171 165 163 163 168 179 190 210 218 218 221 218 199 138 22 346 345 351 352 348 345 343 345 345 344 343 341 341 340 340 341 340 336 334 332 332 332 332 332 330 320 316 319 326 341 352 355 359 7 10 13 209 216 187 171 167 168 172 186 212 223 228 234 231 217 202 196 197 200 203 204 206 209 213 217
296 277 306 21 353 303 282 274 93 261 274 289 304 292 298 186 166 154 162 168 159 166 174 174 172 171 185 203 208 217 224 221 220 219 188 145 341 338 352 356 352 347 343 343 345 345 343 342 341 340 340 339 339 337 333 330 328 327 327 327 327 324 317 308 303 305 313 317 318 325 330 333 345 350 318 231 186 188 196 194 195 215 228 232 232 231 223 210 205 207 207 208 207 207 211 216 218
311 320 22 27 254 263 272 274 248 250 270 301 359 305 301 292 164 159 181 190 178 181 183 183 184 187 201 212 208 218 237 243 225 216 207 199 309 345 360 355 348 345 343 343 344 344 344 344 342 340 341 340 338 335 332 328 326 325 323 323 323 320 314 308 297 291 294 295 289 286 293 305 316 343 348 311 228 207 212 215 213 212 220 230 234 238 231 214 208 214 216 216 213 208 210 217 220
351 31 39 293 268 257 226 272 305 297 297 316 335 300 294 306 36 174 195 197 190 191 193 197 198 198 206 205 199 204 215 219 216 219 219 212 309 354 3 351 344 344 344 344 343 343 345 345 344 341 340 340 338 336 335 331 329 327 324 323 320 316 312 306 298 292 287 281 276 272 273 283 294 311 331 309 281 245 232 229 224 221 223 228 232 240 237 221 215 219 223 224 220 212 212 217 221
145 166 164 301 326 328 322 318 318 307 304 317 322 294 308 58 23 328 215 195 195 197 202 205 203 201 206 205 200 201 198 206 223 223 206 190 337 359 358 345 342 345 346 345 344 343 344 344 344 342 340 338 337 338 336 335 334 331 327 325 321 316 312 305 299 296 289 280 274 269 266 266 270 270 253 256 262 255 249 243 230 224 226 229 228 236 238 228 223 223 224 226 221 216 217 219 222
236 224 287 22 23 290 286 268 325 312 304 322 328 306 21 61 25 347 345 212 204 203 209 209 203 201 202 199 202 205 193 202 219 214 198 211 335 354 348 342 342 345 348 347 344 344 343 342 343 343 340 337 336 337 335 334 334 332 328 325 323 318 312 305 300 296 289 283 276 269 263 259 257 253 240 238 240 241 246 249 242 228 221 222 225 229 231 228 227 225 224 227 226 222 222 223 223
322 326 336 345 347 297 283 244 105 309 304 329 320 305 14 70 43 6 357 303 236 218 219 213 204 201 199 199 206 212 215 208 198 198 210 237 334 343 338 337 340 345 349 347 344 344 343 342 342 341 340 338 336 333 333 333 332 332 330 325 322 318 311 307 303 294 288 286 283 275 268 261 255 250 244 242 239 235 237 242 245 243 231 223 222 228 234 235 234 232 228 227 229 226 225 225 225